Tiempo cada hora Abashevo

Hoy, 23 Octubre, Viernes

Tiempo Temperatura Precipitaciones Viento Presión Humedad
00:00 +3°C° 0.1 mm 4 mps 744 mmHg 88%
01:00 +2°C° 0.2 mm 5 mps 744 mmHg 88%
02:00 +2°C° 0.2 mm 5 mps 743 mmHg 88%
03:00 +2°C° 0.2 mm 5 mps 743 mmHg 88%
04:00 +3°C° 0.1 mm 5 mps 742 mmHg 89%
05:00 +3°C° 0.1 mm 5 mps 741 mmHg 90%
06:00 +3°C° 0.1 mm 5 mps 740 mmHg 90%
07:00 +5°C° 0.3 mm 5 mps 740 mmHg 91%
08:00 +5°C° 0.3 mm 5 mps 740 mmHg 91%
09:00 +6°C° 0.3 mm 5 mps 740 mmHg 91%
10:00 +7°C° 0.1 mm 5 mps 740 mmHg 91%
11:00 +8°C° 0.1 mm 5 mps 740 mmHg 91%
12:00 +8°C° 0.1 mm 6 mps 740 mmHg 91%
13:00 +9°C° 0 mm 5 mps 740 mmHg 88%
14:00 +10°C° 0 mm 5 mps 740 mmHg 85%
15:00 +10°C° 0 mm 5 mps 740 mmHg 82%
16:00 +10°C° 0 mm 5 mps 740 mmHg 84%
17:00 +9°C° 0 mm 5 mps 740 mmHg 86%
18:00 +9°C° 0 mm 5 mps 740 mmHg 87%
19:00 +9°C° 0 mm 5 mps 740 mmHg 89%
20:00 +8°C° 0 mm 5 mps 740 mmHg 90%
21:00 +8°C° 0 mm 4 mps 740 mmHg 91%
22:00 +8°C° 0.2 mm 5 mps 739 mmHg 92%
23:00 +8°C° 0.2 mm 5 mps 739 mmHg 92%

Mañana, 24 Octubre, Sábado

Tiempo Temperatura Precipitaciones Viento Presión Humedad
00:00 +9°C° 0.2 mm 5 mps 738 mmHg 92%
01:00 +9°C° 0.7 mm 6 mps 738 mmHg 92%
02:00 +9°C° 0.7 mm 6 mps 738 mmHg 92%
03:00 +10°C° 0.7 mm 6 mps 737 mmHg 92%
04:00 +10°C° 0 mm 6 mps 737 mmHg 92%
05:00 +10°C° 0 mm 6 mps 737 mmHg 92%
06:00 +9°C° 0 mm 6 mps 737 mmHg 92%
07:00 +9°C° 0 mm 6 mps 738 mmHg 89%
08:00 +9°C° 0 mm 6 mps 738 mmHg 86%
09:00 +9°C° 0 mm 6 mps 739 mmHg 84%
10:00 +10°C° 0 mm 6 mps 739 mmHg 82%
11:00 +10°C° 0 mm 6 mps 740 mmHg 79%
12:00 +10°C° 0 mm 5 mps 740 mmHg 77%
13:00 +10°C° 0 mm 5 mps 741 mmHg 77%
14:00 +10°C° 0 mm 5 mps 741 mmHg 76%
15:00 +11°C° 0 mm 4 mps 741 mmHg 75%
16:00 +10°C° 0 mm 4 mps 741 mmHg 77%
17:00 +10°C° 0 mm 4 mps 742 mmHg 78%
18:00 +9°C° 0 mm 3 mps 742 mmHg 79%
19:00 +9°C° 0 mm 3 mps 742 mmHg 79%
20:00 +9°C° 0 mm 3 mps 742 mmHg 79%
21:00 +9°C° 0 mm 2 mps 743 mmHg 80%
22:00 +9°C° 0 mm 2 mps 742 mmHg 79%
23:00 +9°C° 0 mm 2 mps 742 mmHg 79%

Pasado mañana, 25 Octubre, Domingo

Tiempo Temperatura Precipitaciones Viento Presión Humedad
00:00 +9°C° 0 mm 2 mps 742 mmHg 79%
01:00 +8°C° 0 mm 2 mps 742 mmHg 80%
02:00 +8°C° 0 mm 2 mps 742 mmHg 81%
03:00 +8°C° 0 mm 2 mps 742 mmHg 81%
04:00 +8°C° 0 mm 2 mps 742 mmHg 82%
05:00 +8°C° 0 mm 2 mps 742 mmHg 83%
06:00 +8°C° 0 mm 2 mps 741 mmHg 83%
07:00 +9°C° 0.7 mm 1 mps 741 mmHg 87%
08:00 +8°C° 0.7 mm 1 mps 741 mmHg 90%
09:00 +7°C° 0.7 mm 0 mps 740 mmHg 93%
10:00 +7°C° 0.5 mm 0 mps 740 mmHg 92%
11:00 +7°C° 0.5 mm 0 mps 740 mmHg 92%
12:00 +8°C° 0.5 mm 0 mps 740 mmHg 91%
13:00 +9°C° 0.2 mm 1 mps 740 mmHg 90%
14:00 +9°C° 0.2 mm 1 mps 740 mmHg 90%
15:00 +8°C° 0.2 mm 2 mps 741 mmHg 89%
16:00 +8°C° 0.2 mm 3 mps 741 mmHg 89%
17:00 +7°C° 0.2 mm 4 mps 742 mmHg 89%
18:00 +6°C° 0.2 mm 5 mps 742 mmHg 89%
19:00 +6°C° 0 mm 5 mps 743 mmHg 90%
20:00 +6°C° 0 mm 4 mps 743 mmHg 91%
21:00 +6°C° 0 mm 4 mps 744 mmHg 92%
22:00 +5°C° 0 mm 3 mps 744 mmHg 93%
23:00 +4°C° 0 mm 3 mps 744 mmHg 94%

26 Octubre, Lunes

Tiempo Temperatura Precipitaciones Viento Presión Humedad
00:00 +5°C° 0 mm 2 mps 745 mmHg 95%
01:00 +4°C° 0 mm 3 mps 745 mmHg 94%
02:00 +4°C° 0 mm 3 mps 745 mmHg 94%
03:00 +4°C° 0 mm 3 mps 746 mmHg 94%
04:00 +5°C° 0 mm 3 mps 746 mmHg 93%
05:00 +5°C° 0 mm 4 mps 747 mmHg 92%
06:00 +5°C° 0 mm 4 mps 747 mmHg 91%
07:00 +5°C° 0 mm 4 mps 748 mmHg 88%
08:00 +5°C° 0 mm 5 mps 748 mmHg 85%
09:00 +5°C° 0 mm 5 mps 749 mmHg 82%
10:00 +6°C° 0 mm 5 mps 749 mmHg 76%
11:00 +6°C° 0 mm 5 mps 750 mmHg 71%
12:00 +6°C° 0 mm 4 mps 750 mmHg 65%
13:00 +6°C° 0 mm 4 mps 750 mmHg 65%
14:00 +6°C° 0 mm 4 mps 751 mmHg 64%
15:00 +6°C° 0 mm 4 mps 751 mmHg 63%
16:00 +5°C° 0 mm 4 mps 751 mmHg 69%
17:00 +4°C° 0 mm 3 mps 752 mmHg 75%
18:00 +3°C° 0 mm 3 mps 752 mmHg 81%
19:00 +3°C° 0 mm 2 mps 753 mmHg 83%
20:00 +3°C° 0 mm 2 mps 753 mmHg 85%
21:00 +2°C° 0 mm 2 mps 754 mmHg 87%
22:00 +2°C° 0 mm 2 mps 754 mmHg 88%
23:00 +1°C° 0 mm 2 mps 754 mmHg 90%

27 Octubre, Martes

Tiempo Temperatura Precipitaciones Viento Presión Humedad
00:00 +2°C° 0 mm 1 mps 754 mmHg 91%
01:00 +2°C° 0 mm 1 mps 755 mmHg 91%
02:00 +1°C° 0 mm 1 mps 755 mmHg 90%
03:00 +1°C° 0 mm 1 mps 755 mmHg 90%
04:00 +1°C° 0 mm 1 mps 756 mmHg 90%
05:00 +1°C° 0 mm 1 mps 756 mmHg 89%
06:00 +1°C° 0 mm 1 mps 756 mmHg 89%
07:00 +1°C° 0 mm 1 mps 757 mmHg 86%
08:00 +1°C° 0 mm 2 mps 757 mmHg 82%
09:00 +2°C° 0 mm 2 mps 757 mmHg 79%
10:00 +3°C° 0 mm 2 mps 757 mmHg 74%
11:00 +4°C° 0 mm 2 mps 757 mmHg 69%
12:00 +5°C° 0 mm 2 mps 757 mmHg 65%
13:00 +5°C° 0 mm 2 mps 757 mmHg 64%
14:00 +5°C° 0 mm 2 mps 757 mmHg 64%
15:00 +6°C° 0 mm 2 mps 757 mmHg 63%
16:00 +5°C° 0 mm 2 mps 757 mmHg 67%
17:00 +4°C° 0 mm 2 mps 757 mmHg 71%
18:00 +3°C° 0 mm 2 mps 757 mmHg 75%
19:00 +3°C° 0 mm 2 mps 756 mmHg 76%
20:00 +1°C° 0 mm 3 mps 756 mmHg 76%
21:00 +1°C° 0 mm 3 mps 756 mmHg 76%
22:00 +1°C° 0 mm 3 mps 756 mmHg 76%
23:00 +1°C° 0 mm 3 mps 756 mmHg 76%

28 Octubre, Miércoles

Tiempo Temperatura Precipitaciones Viento Presión Humedad
00:00 0°C° 0 mm 3 mps 756 mmHg 76%
01:00 0°C° 0 mm 3 mps 756 mmHg 76%
02:00 0°C° 0 mm 3 mps 756 mmHg 75%
03:00 0°C° 0 mm 3 mps 756 mmHg 75%
04:00 0°C° 0 mm 3 mps 756 mmHg 73%
05:00 0°C° 0 mm 3 mps 756 mmHg 71%
06:00 -1°C° 0 mm 4 mps 756 mmHg 68%
07:00 0°C° 0 mm 4 mps 755 mmHg 66%
08:00 0°C° 0 mm 4 mps 755 mmHg 63%
09:00 +1°C° 0 mm 5 mps 755 mmHg 60%
10:00 +2°C° 0 mm 5 mps 755 mmHg 57%
11:00 +3°C° 0 mm 5 mps 755 mmHg 55%
12:00 +5°C° 0 mm 5 mps 755 mmHg 52%
13:00 +5°C° 0 mm 5 mps 755 mmHg 52%
14:00 +6°C° 0 mm 5 mps 754 mmHg 51%
15:00 +6°C° 0 mm 4 mps 754 mmHg 51%
16:00 +5°C° 0 mm 4 mps 754 mmHg 54%
17:00 +4°C° 0 mm 4 mps 754 mmHg 57%
18:00 +3°C° 0 mm 4 mps 754 mmHg 60%
19:00 +3°C° 0 mm 4 mps 754 mmHg 60%
20:00 +3°C° 0 mm 4 mps 753 mmHg 60%
21:00 +1°C° 0 mm 4 mps 753 mmHg 60%
22:00 +1°C° 0 mm 4 mps 753 mmHg 60%
23:00 +1°C° 0 mm 4 mps 753 mmHg 60%
Mostrar más

Necesitamos Su Consentimiento

Meteoprog y nuestros Proveedores de Servicios pueden almacenar y acceder a sus datos personales como cookies, identificadores de dispositivo u otras tecnologías similares de su dispositivo y procesar dichos datos para personalizar contenido y anuncios, además de ofrecer funciones de redes sociales y analizar el tráfico.

  • Almacenar y/o acceder a información en su dispositivo

    Se puede almacenar o acceder a cookies, identificadores de dispositivo u otra información de su dispositivo para los fines anteriormente indicados.

  • Anuncios y contenido personalizados, medición de anuncios y contenido, percepciones del público, y desarrollo de productos

    Los anuncios y el contenido pueden personalizarse en base a su perfil. Se pueden añadir más datos para personalizar mejor los anuncios y contenidos. Se puede medir el rendimiento de los anuncios y contenidos. Se puede obtener la percepción sobre el público que ha visto los anuncios y contenidos. Dichos datos pueden usarse para desarrollar o mejorar la experiencia del usuario, sistemas y software.

Al hacer clic en ‘Estoy De Acuerdo’ usted permitirá el uso de las cookies, identificadores de dispositivo, balizas web u otras tecnologías similares indicadas. Su configuración puede cambiarse desde el navegador de su dispositivo.

Para ciertos fines, los intereses legítimos pueden ser considerados por encima del consentimiento. Puede leer más sobre ello en nuestra Política de Privacidad y Cookies.